Regional Weather Roundup
Issued by NWS

Home | Current Version | Previous Version | Graphics & Text | Print | Product List | Glossary Off
Versions: 1 2 3 4 5 6 7 8 9 10 11 12 13 14 15 16 17 18 19 20 21 22 23 24 25 26 27 28 29 30 31 32 33 34 35 36 37 38 39 40 41 42 43 44 45 46 47 48 49 50

000
ASUS43 KDTX 290310
RWRMI
MICHIGAN HOURLY REGIONAL WEATHER ROUNDUP
NATIONAL WEATHER SERVICE DETROIT/PONTIAC MI
1100 PM EDT FRI AUG 28 2015

NOTE: "FAIR" INDICATES FEW OR NO CLOUDS BELOW 12,000 FEET WITH NO
SIGNIFICANT WEATHER AND/OR OBSTRUCTION TO VISIBILITY.

MIZ047>049-052>055-059>063-066>070-074>076-081>083-290400-
SOUTHEAST LOWER MICHIGAN

CITY           SKY/WX    TMP DP  RH WIND       PRES   REMARKS
ADRIAN         PTCLDY    63  59  87 CALM      30.15S
ALMA           CLOUDY    61  60  97 CALM      30.13S
ANN ARBOR      PTCLDY    59  58  96 CALM      30.15S
BAD AXE        PTCLDY    61  57  88 CALM      30.14R
CARO           PTCLDY    59  59  99 CALM      30.12S
DETROIT CITY   PTCLDY    65  58  78 S5        30.15S
DETROIT        MOCLDY    66  61  84 CALM      30.16R
FLINT          PTCLDY    67  59  75 S7        30.14R
GROSSE ILE     PTCLDY    70  64  83 SE5       30.14S
HILLSDALE      MOCLDY    65  62  91 SE3       30.15S
HOWELL         PTCLDY    66  61  85 S6        30.15R

CITY           SKY/WX    TMP DP  RH WIND       PRES   REMARKS
JACKSON        MOCLDY    66  61  84 S3        30.14S
LAMBERTVILLE   PTCLDY    63  60  90 SE3       30.15S
LANSING        MOCLDY    64  59  83 CALM      30.14R
LAPEER         FAIR      61  59  92 CALM      30.15R
MASON          MOCLDY    65  60  83 CALM      30.14S
MT. CLEMENS    PTCLDY    64  61  90 S3        30.13S
PONTIAC        CLOUDY    65  59  81 CALM      30.15R
PORT HOPE        N/A     63  58  83 S5        30.12S
PORT HURON     PTCLDY    59  57  94 CALM      30.15S
TRI CITIES     MOCLDY    67  60  78 S5        30.13R
MIDLAND        FAIR      63  61  93 CALM      30.12R
TROY           PTCLDY    67  58  71 S3        30.16F
SAGINAW HB     PTCLDY    61  59  94 CALM      30.12S
$$
MIZ043>046-050>051-056>058-064>065-071>073-077>080-290400-
SOUTHWEST LOWER MICHIGAN

CITY           SKY/WX    TMP DP  RH WIND       PRES   REMARKS
BATTLE CREEK   CLOUDY    68  63  84 CALM      30.15R
BENTON HARBOR  CLOUDY    67  62  84 E3        30.11S
BIG RAPIDS     CLOUDY    63  61  93 CALM      30.12S
COLDWATER      CLOUDY    66  63  89 CALM      30.15R
FREMONT        RAIN      64  64 100 CALM      30.12S
HOLLAND        CLOUDY    67  64  90 CALM      30.13R
GRAND RAPIDS   LGT RAIN  67  64  90 CALM      30.13S
IONIA          MOCLDY    64  62  95 CALM      30.12S
KALAMAZOO      CLOUDY    69  62  78 CALM      30.13S
LUDINGTON      LGT RAIN  66  63  91 CALM      30.12S
MARSHALL       CLOUDY    65  62  90 CALM      30.14R
MOUNT PLEASANT CLOUDY    64  61  91 CALM      30.12R
MUSKEGON       LGT RAIN  66  62  87 SW3       30.13R
SOUTH HAVEN    CLOUDY    66  63  90 CALM      30.11F
$$
MIZ016>042-290400-
NORTHERN LOWER MICHIGAN

CITY           SKY/WX    TMP DP  RH WIND       PRES   REMARKS
ALPENA         MOCLDY    62  58  86 S7        30.10S
BEAVER ISLAND  CLOUDY    65  62  88 SW13G20   30.06F
BELLAIRE       CLOUDY    67  59  75 SW5       30.09R
CADILLAC       CLOUDY    64  60  87 W3        30.13S
CHARLEVOIX     CLOUDY    68  60  75 SW9       30.12R
FRANKFORT      LGT RAIN  66  64  95 SW3       30.11S
GAYLORD        CLOUDY    63  59  87 SW7       30.11S
GRAYLING       MOCLDY    61  58  91 CALM      30.13S
HARBOR SPRINGS CLOUDY    67  60  78 SW6       30.08S
HOUGHTON LAKE  MOCLDY    65  59  81 CALM      30.13R
MANISTEE       CLOUDY    64  61  88 CALM      30.12S
OSCODA         CLEAR     59  57  92 CALM      30.11S
PELLSTON       CLOUDY    63  60  90 CALM      30.08S
ROGERS CITY    CLOUDY    66  58  75 S7        30.09S
TRAVERSE CITY  CLOUDY    68  59  73 VRB5      30.09S
$$
MIZ007>008-015-290400-
EASTERN UPPER MICHIGAN

CITY           SKY/WX    TMP DP  RH WIND       PRES   REMARKS
KINROSS        CLOUDY    64  61  88 S5        30.05F
MACKINAC ISLAN CLOUDY    65  57  73 S6        30.06F
NEWBERRY       CLOUDY    63  61  95 S10       30.03F
S. S. MARIE    CLOUDY    65  59  81 SE6       30.04F
MUNISING         N/A     68  62  81 S10       29.99F
$$
MIZ004>006-011>014-085-290400-
CENTRAL UPPER MICHIGAN

CITY           SKY/WX    TMP DP  RH WIND       PRES   REMARKS
MANISTIQUE     CLOUDY    63  61  94 S6        30.04S FOG
ESCANABA       CLOUDY    66  63  88 S10       30.04F
MENOMINEE      CLOUDY    63  57  82 SW9       30.08S
SAWYER-GWINN   MOCLDY    68  63  83 SW8       30.01F
$$
MIZ001>003-009>011-084-290400-
WESTERN UPPER MICHIGAN

CITY           SKY/WX    TMP DP  RH WIND       PRES   REMARKS
IRON MOUNTAIN  CLOUDY    64  61  90 S6        30.04S
HOUGHTON       PTCLDY    65  61  87 SW8       29.96S
COPPER HARBOR    N/A     65  62  90 W8        29.93F
IRONWOOD       PTCLDY    66  63  88 SW10      29.98F
$$

ABBREVIATIONS USED IN REMARKS
   TC - TEMPERATURE IN CELSIUS
  WCI - WIND CHILL INDEX
   HX - HEAT INDEX
  VSB - VISIBILITY



USA.gov is the U.S. government's official web portal to all federal, state and local government web resources and services.